When you browse on this site, cookies collect data to enhance your experience and personalize the content and advertising you see.
Visit our Privacy Policy to learn more. By continuing to use the site, you agree to this use of cookies and data.
  • en Suisse
  • Liste des pays
  • À 7 jours
  • Température de l'eau
  • Carte satellitaire
  • Carte météo
  • Widgets météo
  • user-avatar
    Se connecter

    Météo par heure à Brasília

    Ce jour, 18 Novembre, Dimanche

    Heure Température Précipitation Vent Pression Humidité
    00:00 +20°C° 0.6 mm 1 m/s 666 mmHg 92%
    01:00 +21°C° 0.3 mm 1 m/s 666 mmHg 91%
    02:00 +21°C° 0.3 mm 1 m/s 665 mmHg 91%
    03:00 +20°C° 0 mm 1 m/s 665 mmHg 90%
    04:00 +20°C° 0.1 mm 1 m/s 666 mmHg 91%
    05:00 +20°C° 0.1 mm 1 m/s 666 mmHg 91%
    06:00 +19°C° 0.1 mm 2 m/s 666 mmHg 91%
    07:00 +20°C° 0.1 mm 2 m/s 666 mmHg 87%
    08:00 +22°C° 0.1 mm 3 m/s 667 mmHg 84%
    09:00 +24°C° 0.1 mm 3 m/s 667 mmHg 80%
    10:00 +25°C° 0.2 mm 3 m/s 667 mmHg 75%
    11:00 +26°C° 0.2 mm 3 m/s 668 mmHg 69%
    12:00 +28°C° 0.2 mm 3 m/s 668 mmHg 64%
    13:00 +27°C° 0.8 mm 3 m/s 667 mmHg 66%
    14:00 +27°C° 0.8 mm 3 m/s 667 mmHg 68%
    15:00 +27°C° 0.8 mm 3 m/s 666 mmHg 70%
    16:00 +26°C° 0.8 mm 2 m/s 666 mmHg 74%
    17:00 +25°C° 0.8 mm 2 m/s 665 mmHg 79%
    18:00 +24°C° 0.8 mm 2 m/s 665 mmHg 84%
    19:00 +23°C° 0.5 mm 1 m/s 665 mmHg 86%
    20:00 +22°C° 0.5 mm 1 m/s 666 mmHg 87%
    21:00 +22°C° 0.5 mm 1 m/s 666 mmHg 89%
    22:00 +22°C° 0.4 mm 1 m/s 666 mmHg 89%
    23:00 +22°C° 0.4 mm 1 m/s 666 mmHg 89%

    Demain, 19 Novembre, Lundi

    Heure Température Précipitation Vent Pression Humidité
    00:00 +21°C° 0.4 mm 1 m/s 666 mmHg 89%
    01:00 +21°C° 0.1 mm 1 m/s 666 mmHg 90%
    02:00 +21°C° 0.1 mm 1 m/s 665 mmHg 90%
    03:00 +21°C° 0.1 mm 1 m/s 665 mmHg 91%
    04:00 +21°C° 0.1 mm 1 m/s 665 mmHg 92%
    05:00 +21°C° 0.1 mm 1 m/s 665 mmHg 92%
    06:00 +21°C° 0.1 mm 1 m/s 665 mmHg 92%
    07:00 +21°C° 0.1 mm 2 m/s 665 mmHg 87%
    08:00 +23°C° 0.1 mm 2 m/s 666 mmHg 82%
    09:00 +24°C° 0.1 mm 2 m/s 667 mmHg 77%
    10:00 +24°C° 0.3 mm 2 m/s 667 mmHg 75%
    11:00 +25°C° 0.3 mm 2 m/s 666 mmHg 72%
    12:00 +26°C° 0.3 mm 2 m/s 666 mmHg 70%
    13:00 +26°C° 1.1 mm 2 m/s 666 mmHg 72%
    14:00 +25°C° 1.1 mm 2 m/s 665 mmHg 74%
    15:00 +25°C° 1.1 mm 2 m/s 664 mmHg 77%
    16:00 +24°C° 1.3 mm 1 m/s 664 mmHg 80%
    17:00 +24°C° 1.3 mm 1 m/s 664 mmHg 84%
    18:00 +23°C° 1.3 mm 1 m/s 664 mmHg 87%
    19:00 +22°C° 0.9 mm 1 m/s 664 mmHg 87%
    20:00 +22°C° 0.9 mm 1 m/s 665 mmHg 88%
    21:00 +22°C° 0.9 mm 1 m/s 665 mmHg 88%
    22:00 +22°C° 0.6 mm 1 m/s 665 mmHg 88%
    23:00 +20°C° 0.6 mm 0 m/s 665 mmHg 89%

    Après-demain, 20 Novembre, Mardi

    Heure Température Précipitation Vent Pression Humidité
    00:00 +19°C° 0.6 mm 0 m/s 665 mmHg 89%
    01:00 +19°C° 0.7 mm 0 m/s 665 mmHg 90%
    02:00 +21°C° 0.7 mm 1 m/s 665 mmHg 90%
    03:00 +21°C° 0.7 mm 1 m/s 664 mmHg 91%
    04:00 +21°C° 0.7 mm 1 m/s 664 mmHg 92%
    05:00 +21°C° 0.7 mm 1 m/s 665 mmHg 92%
    06:00 +21°C° 0.7 mm 1 m/s 665 mmHg 93%
    07:00 +20°C° 0.8 mm 2 m/s 665 mmHg 92%
    08:00 +20°C° 0.8 mm 2 m/s 666 mmHg 90%
    09:00 +20°C° 0.8 mm 2 m/s 666 mmHg 89%
    10:00 +21°C° 0.4 mm 2 m/s 666 mmHg 87%
    11:00 +21°C° 0.4 mm 2 m/s 667 mmHg 86%
    12:00 +23°C° 0.4 mm 2 m/s 667 mmHg 84%
    13:00 +23°C° 0.3 mm 2 m/s 666 mmHg 83%
    14:00 +24°C° 0.3 mm 1 m/s 665 mmHg 81%
    15:00 +24°C° 0.3 mm 1 m/s 665 mmHg 80%
    16:00 +23°C° 1 mm 1 m/s 665 mmHg 83%
    17:00 +22°C° 1 mm 1 m/s 665 mmHg 86%
    18:00 +22°C° 1 mm 1 m/s 665 mmHg 90%
    19:00 +21°C° 0.6 mm 1 m/s 665 mmHg 90%
    20:00 +21°C° 0.6 mm 1 m/s 665 mmHg 91%
    21:00 +20°C° 0.6 mm 2 m/s 666 mmHg 92%
    22:00 +19°C° 0.5 mm 2 m/s 666 mmHg 92%
    23:00 +19°C° 0.5 mm 2 m/s 666 mmHg 92%

    21 Novembre, Mercredi

    Heure Température Précipitation Vent Pression Humidité
    00:00 +19°C° 0.5 mm 2 m/s 666 mmHg 93%
    01:00 +19°C° 0.6 mm 3 m/s 665 mmHg 93%
    02:00 +19°C° 0.6 mm 3 m/s 665 mmHg 92%
    03:00 +19°C° 0.6 mm 3 m/s 664 mmHg 92%
    04:00 +19°C° 0.1 mm 3 m/s 665 mmHg 92%
    05:00 +19°C° 0.1 mm 3 m/s 665 mmHg 91%
    06:00 +19°C° 0.1 mm 3 m/s 665 mmHg 91%
    07:00 +20°C° 0.1 mm 3 m/s 666 mmHg 88%
    08:00 +20°C° 0.1 mm 4 m/s 667 mmHg 85%
    09:00 +21°C° 0.1 mm 4 m/s 667 mmHg 83%
    10:00 +22°C° 0.3 mm 4 m/s 667 mmHg 80%
    11:00 +23°C° 0.3 mm 4 m/s 667 mmHg 76%
    12:00 +25°C° 0.3 mm 4 m/s 667 mmHg 73%
    13:00 +25°C° 0.3 mm 4 m/s 666 mmHg 73%
    14:00 +25°C° 0.3 mm 4 m/s 666 mmHg 73%
    15:00 +25°C° 0.3 mm 4 m/s 665 mmHg 72%
    16:00 +23°C° 0.6 mm 4 m/s 665 mmHg 77%
    17:00 +22°C° 0.6 mm 3 m/s 665 mmHg 81%
    18:00 +21°C° 0.6 mm 3 m/s 665 mmHg 86%
    19:00 +20°C° 0.4 mm 3 m/s 665 mmHg 87%
    20:00 +20°C° 0.4 mm 2 m/s 665 mmHg 87%
    21:00 +19°C° 0.4 mm 2 m/s 666 mmHg 87%
    22:00 +19°C° 0.3 mm 2 m/s 666 mmHg 88%
    23:00 +19°C° 0.3 mm 3 m/s 666 mmHg 88%

    22 Novembre, Jeudi

    Heure Température Précipitation Vent Pression Humidité
    00:00 +19°C° 0.3 mm 3 m/s 665 mmHg 88%
    01:00 +19°C° 0.4 mm 3 m/s 665 mmHg 88%
    02:00 +19°C° 0.4 mm 3 m/s 664 mmHg 88%
    03:00 +19°C° 0.4 mm 3 m/s 664 mmHg 88%
    04:00 +19°C° 0.1 mm 3 m/s 664 mmHg 89%
    05:00 +19°C° 0.1 mm 3 m/s 665 mmHg 89%
    06:00 +19°C° 0.1 mm 3 m/s 665 mmHg 90%
    07:00 +19°C° 0.2 mm 4 m/s 665 mmHg 89%
    08:00 +20°C° 0.2 mm 4 m/s 666 mmHg 88%
    09:00 +20°C° 0.2 mm 4 m/s 667 mmHg 88%
    10:00 +21°C° 0.4 mm 4 m/s 667 mmHg 85%
    11:00 +22°C° 0.4 mm 4 m/s 667 mmHg 83%
    12:00 +22°C° 0.4 mm 4 m/s 667 mmHg 81%
    13:00 +22°C° 0.4 mm 4 m/s 666 mmHg 80%
    14:00 +22°C° 0.4 mm 3 m/s 665 mmHg 80%
    15:00 +22°C° 0.4 mm 3 m/s 665 mmHg 80%
    16:00 +23°C° 0.2 mm 2 m/s 665 mmHg 82%
    17:00 +21°C° 0.2 mm 2 m/s 665 mmHg 84%
    18:00 +21°C° 0.2 mm 2 m/s 665 mmHg 87%
    19:00 +20°C° 0.2 mm 2 m/s 665 mmHg 88%
    20:00 +20°C° 0.2 mm 2 m/s 665 mmHg 89%
    21:00 +19°C° 0.2 mm 2 m/s 665 mmHg 91%
    22:00 +19°C° 0.2 mm 2 m/s 665 mmHg 91%
    23:00 +19°C° 0.2 mm 2 m/s 665 mmHg 91%

    23 Novembre, Vendredi

    Heure Température Précipitation Vent Pression Humidité
    00:00 +19°C° 0.2 mm 2 m/s 665 mmHg 91%
    01:00 +19°C° 0.2 mm 2 m/s 665 mmHg 91%
    02:00 +19°C° 0.2 mm 2 m/s 664 mmHg 90%
    03:00 +18°C° 0.2 mm 2 m/s 664 mmHg 90%
    04:00 +18°C° 0 mm 2 m/s 664 mmHg 91%
    05:00 +18°C° 0 mm 3 m/s 664 mmHg 91%
    06:00 +18°C° 0 mm 3 m/s 665 mmHg 92%
    07:00 +19°C° 0.1 mm 3 m/s 665 mmHg 90%
    08:00 +20°C° 0.1 mm 4 m/s 666 mmHg 87%
    09:00 +20°C° 0.1 mm 4 m/s 667 mmHg 85%
    10:00 +21°C° 0.2 mm 4 m/s 666 mmHg 81%
    11:00 +22°C° 0.2 mm 4 m/s 666 mmHg 77%
    12:00 +23°C° 0.2 mm 5 m/s 666 mmHg 73%
    13:00 +23°C° 0.6 mm 4 m/s 666 mmHg 72%
    14:00 +23°C° 0.6 mm 4 m/s 665 mmHg 71%
    15:00 +24°C° 0.6 mm 3 m/s 664 mmHg 71%
    16:00 +24°C° 0.4 mm 3 m/s 664 mmHg 75%
    17:00 +23°C° 0.4 mm 2 m/s 664 mmHg 79%
    18:00 +21°C° 0.4 mm 2 m/s 664 mmHg 83%
    19:00 +20°C° 0.1 mm 2 m/s 664 mmHg 85%
    20:00 +19°C° 0.1 mm 2 m/s 665 mmHg 88%
    21:00 +20°C° 0.1 mm 1 m/s 665 mmHg 90%
    22:00 +20°C° 0 mm 1 m/s 665 mmHg 90%
    23:00 +19°C° 0 mm 1 m/s 665 mmHg 90%
    Voir plus